Location: Cortos
(40.7190°N, 4.5893°W)
Time: 19:13:03
(UTC+00:00)

Cosmos 1953 Rocket - Pass Details

Date: 05 July 2020
Orbit: 605 x 634 km, 82.5° (Epoch: 05 August)

Event Time Altitude Azimuth Distance (km) Brightness Sun altitude
Exits shadow 21:33:10 21° 175° (S) 1,378 4.9 -15.3°
Maximum altitude 21:36:00 70° 96° (E) 648 3.5 -15.7°
Drops below altitude 10° 21:40:19 10° 13° (NNE) 1,962 6.7 -16.2°
Sets 21:42:32 0° 11° (N) 2,872 7.6 -16.4°
